| time (UTC) | temp C | wind direction | speed KPH | gust KPH | rain 1hr cm | rain 24hr cm | rain mn cm | humidity % | barometer mb |
| 20260504220959 | 22 | 214 | 8.0 | 11.3 | 0.00 | 0.00 | 0.00 | 35 | 1009.3 |
| 20260504215945 | 22 | 182 | 8.0 | 20.9 | 0.00 | 0.00 | 0.00 | 35 | 1009.3 |
| 20260504214952 | 22 | 237 | 4.8 | 11.3 | 0.00 | 0.00 | 0.00 | 35 | 1009.4 |
| 20260504213918 | 22 | 201 | 9.7 | 17.7 | 0.00 | 0.00 | 0.00 | 35 | 1009.3 |
| 20260504212905 | 22 | 197 | 8.0 | 14.5 | 0.00 | 0.00 | 0.00 | 35 | 1009.3 |
| 20260504211850 | 21 | 162 | 6.4 | 12.9 | 0.00 | 0.00 | 0.00 | 37 | 1009.4 |
| 20260504210857 | 22 | 235 | 4.8 | 14.5 | 0.00 | 0.00 | 0.00 | 36 | 1009.4 |
| 20260504205824 | 22 | 204 | 8.0 | 20.9 | 0.00 | 0.00 | 0.00 | 36 | 1009.2 |
| 20260504204810 | 22 | 222 | 8.0 | 16.1 | 0.00 | 0.00 | 0.00 | 36 | 1009.4 |
| 20260504203756 | 22 | 241 | 8.0 | 14.5 | 0.00 | 0.00 | 0.00 | 35 | 1009.2 |
| 20260504202742 | 21 | 209 | 6.4 | 11.3 | 0.00 | 0.00 | 0.00 | 36 | 1009.5 |
| 20260504201728 | 22 | 203 | 11.3 | 17.7 | 0.00 | 0.00 | 0.00 | 35 | 1009.2 |
| 20260504200714 | 22 | 192 | 6.4 | 20.9 | 0.00 | 0.00 | 0.00 | 35 | 1009.7 |
| 20260504195701 | 21 | 235 | 11.3 | 20.9 | 0.00 | 0.00 | 0.00 | 35 | 1009.5 |
| 20260504194707 | 22 | 212 | 6.4 | 11.3 | 0.00 | 0.00 | 0.00 | 36 | 1009.6 |
| 20260504193633 | 21 | 251 | 4.8 | 12.9 | 0.00 | 0.00 | 0.00 | 36 | 1009.9 |
| 20260504193146 | 21 | 244 | 9.7 | 12.9 | 0.00 | 0.00 | 0.00 | 36 | 1010.0 |
| 20260504192112 | 22 | 207 | 12.9 | 22.5 | 0.00 | 0.00 | 0.00 | 35 | 1010.0 |
| 20260504191059 | 22 | 144 | 6.4 | 12.9 | 0.00 | 0.00 | 0.00 | 36 | 1010.1 |
| 20260504190044 | 21 | 220 | 6.4 | 11.3 | 0.00 | 0.00 | 0.00 | 35 | 1010.4 |
| 20260504185031 | 21 | 251 | 11.3 | 17.7 | 0.00 | 0.00 | 0.00 | 36 | 1010.6 |
| 20260504184017 | 22 | 248 | 6.4 | 16.1 | 0.00 | 0.00 | 0.00 | 35 | 1010.4 |
| 20260504183004 | 21 | 216 | 11.3 | 24.1 | 0.00 | 0.00 | 0.00 | 36 | 1010.9 |
| 20260504181949 | 21 | 245 | 9.7 | 12.9 | 0.00 | 0.00 | 0.00 | 37 | 1010.8 |
| 20260504180936 | 21 | 196 | 8.0 | 12.9 | 0.00 | 0.00 | 0.00 | 35 | 1010.9 |
| 20260504175922 | 21 | 244 | 16.1 | 20.9 | 0.00 | 0.00 | 0.00 | 35 | 1011.2 |
| 20260504174909 | 20 | 193 | 6.4 | 16.1 | 0.00 | 0.00 | 0.00 | 36 | 1011.3 |
| 20260504173855 | 21 | 256 | 4.8 | 14.5 | 0.00 | 0.00 | 0.00 | 35 | 1011.4 |
| 20260504172900 | 20 | 230 | 11.3 | 14.5 | 0.00 | 0.00 | 0.00 | 37 | 1011.5 |
| 20260504171827 | 20 | 175 | 9.7 | 16.1 | 0.00 | 0.00 | 0.00 | 36 | 1011.7 |
| 20260504170812 | 20 | 193 | 6.4 | 16.1 | 0.00 | 0.00 | 0.00 | 36 | 1011.9 |
| 20260504151029 | 18 | 237 | 6.4 | 16.1 | 0.00 | 0.00 | 0.00 | 43 | 1012.9 |
| 20260504140907 | 16 | 185 | 3.2 | 4.8 | 0.00 | 0.00 | 0.00 | 52 | 1013.2 |
| 20260504130743 | 13 | 165 | 6.4 | 17.7 | 0.00 | 0.00 | 0.00 | 62 | 1013.8 |
| 20260504120135 | 10 | 207 | 6.4 | 9.7 | 0.00 | 0.00 | 0.00 | 74 | 1013.9 |
| 20260504081633 | 8 | 203 | 1.6 | 3.2 | 0.00 | 0.00 | 0.00 | 62 | 1014.0 |
| 20260504080558 | 8 | 200 | 0.0 | 3.2 | 0.00 | 0.00 | 0.00 | 62 | 1014.0 |
| 20260504045647 | 8 | 0.0 | 0.0 | 0.00 | 0.00 | 0.00 | 58 | 1013.8 | |
| 20260504045156 | 8 | 0.0 | 0.0 | 0.00 | 0.00 | 0.00 | 58 | 1014.0 | |
| 20260504044123 | 8 | 0.0 | 1.6 | 0.00 | 0.00 | 0.00 | 58 | 1013.9 | |
| 20260504043109 | 8 | 212 | 1.6 | 1.6 | 0.00 | 0.00 | 0.00 | 57 | 1013.9 |
| 20260504042056 | 8 | 0.0 | 0.0 | 0.00 | 0.00 | 0.00 | 58 | 1013.7 | |
| 20260504041041 | 8 | 210 | 0.0 | 1.6 | 0.00 | 0.00 | 0.00 | 58 | 1013.5 |
| 20260504040108 | 9 | 208 | 0.0 | 1.6 | 0.00 | 0.00 | 0.00 | 56 | 1013.6 |
| 20260504035014 | 8 | 211 | 0.0 | 3.2 | 0.00 | 0.00 | 0.00 | 57 | 1013.5 |
| 20260504034000 | 8 | 0.0 | 0.0 | 0.00 | 0.00 | 0.00 | 61 | 1013.4 | |
| 20260504033005 | 8 | 0.0 | 0.0 | 0.00 | 0.00 | 0.00 | 60 | 1013.4 | |
| 20260504031931 | 8 | 0.0 | 0.0 | 0.00 | 0.00 | 0.00 | 58 | 1013.5 | |
| 20260504030918 | 8 | 0.0 | 0.0 | 0.00 | 0.00 | 0.00 | 57 | 1013.4 | |
| 20260504025904 | 8 | 0.0 | 0.0 | 0.00 | 0.00 | 0.00 | 56 | 1013.3 | |
| 20260504024851 | 10 | 207 | 1.6 | 1.6 | 0.00 | 0.00 | 0.00 | 54 | 1013.5 |
| 20260504023837 | 10 | 214 | 3.2 | 3.2 | 0.00 | 0.00 | 0.00 | 51 | 1013.5 |
| 20260504022843 | 10 | 207 | 1.6 | 3.2 | 0.00 | 0.00 | 0.00 | 52 | 1013.3 |
| 20260504021808 | 10 | 206 | 0.0 | 1.6 | 0.00 | 0.00 | 0.00 | 52 | 1013.4 |
| 20260504020835 | 10 | 208 | 0.0 | 1.6 | 0.00 | 0.00 | 0.00 | 50 | 1013.4 |
| 20260504015741 | 10 | 210 | 0.0 | 1.6 | 0.00 | 0.00 | 0.00 | 50 | 1013.2 |
| 20260504014727 | 11 | 213 | 0.0 | 1.6 | 0.00 | 0.00 | 0.00 | 47 | 1013.4 |
| 20260504013713 | 11 | 212 | 1.6 | 3.2 | 0.00 | 0.00 | 0.00 | 45 | 1012.9 |
| 20260504012700 | 11 | 204 | 0.0 | 1.6 | 0.00 | 0.00 | 0.00 | 45 | 1012.8 |
| 20260504011646 | 11 | 230 | 4.8 | 4.8 | 0.00 | 0.00 | 0.00 | 43 | 1012.7 |
| 20260504011200 | 12 | 205 | 1.6 | 3.2 | 0.00 | 0.00 | 0.00 | 44 | 1012.9 |
| 20260504010126 | 12 | 210 | 1.6 | 3.2 | 0.00 | 0.00 | 0.00 | 43 | 1012.7 |
| 20260504005112 | 12 | 229 | 3.2 | 4.8 | 0.00 | 0.00 | 0.00 | 42 | 1012.5 |
| 20260504004118 | 12 | 207 | 0.0 | 3.2 | 0.00 | 0.00 | 0.00 | 41 | 1012.4 |
| 20260504003043 | 13 | 215 | 1.6 | 3.2 | 0.00 | 0.00 | 0.00 | 40 | 1012.4 |
| 20260504002050 | 13 | 206 | 0.0 | 4.8 | 0.00 | 0.00 | 0.00 | 39 | 1012.3 |
| 20260504001017 | 13 | 245 | 6.4 | 9.7 | 0.00 | 0.00 | 0.00 | 38 | 1012.2 |
| 20260504000003 | 13 | 254 | 9.7 | 11.3 | 0.00 | 0.00 | 0.00 | 37 | 1011.9 |
| 20260503235010 | 14 | 215 | 1.6 | 11.3 | 0.00 | 0.00 | 0.00 | 36 | 1012.2 |
| 20260503233936 | 15 | 288 | 8.0 | 11.3 | 0.00 | 0.00 | 0.00 | 35 | 1011.9 |
| 20260503232922 | 15 | 247 | 9.7 | 16.1 | 0.00 | 0.00 | 0.00 | 35 | 1011.8 |
| 20260503231909 | 15 | 249 | 14.5 | 17.7 | 0.00 | 0.00 | 0.00 | 34 | 1011.7 |
| 20260503230915 | 15 | 244 | 8.0 | 17.7 | 0.00 | 0.00 | 0.00 | 34 | 1011.7 |
| 20260503225841 | 15 | 348 | 11.3 | 17.7 | 0.00 | 0.00 | 0.00 | 34 | 1011.6 |
| 20260503224828 | 15 | 227 | 12.9 | 25.7 | 0.00 | 0.00 | 0.00 | 33 | 1011.7 |
| 20260503223814 | 15 | 248 | 16.1 | 20.9 | 0.00 | 0.00 | 0.00 | 33 | 1011.6 |
| 20260503222821 | 15 | 242 | 14.5 | 22.5 | 0.00 | 0.00 | 0.00 | 33 | 1011.6 |
| 20260503221747 | 15 | 272 | 14.5 | 33.8 | 0.00 | 0.00 | 0.00 | 32 | 1011.8 |